User: anonymous   Login
Location: Newark
(58.8333°N, 23.5833°E)
Time: 04:37:27
(UTC+00:00)
Language:

NOAA 18 - Orbit

View from above orbital plane
View from above orbital plane
View from above satellite
View from above satellite

Ground track
Ground track

The orbit data is extracted from the following two-line orbital elements,

1 28654U 05018A   19342.55191460  .00000078  00000-0  66915-4 0  9995
2 28654  99.0738  31.9180 0014919  54.3307 305.9250 14.12472579749928
Epoch (UTC): 08 December 2019 13:14:45
Eccentricity: 0.0014919
inclination: 99.0738°
perigee height: 840 km
apogee height: 862 km
right ascension of ascending node: 31.9180°
argument of perigee: 54.3307°
revolutions per day: 14.12472579
mean anomaly at epoch: 305.9250°
orbit number at epoch: 74992

The dashed part of the orbit path shows where the satellite is in the earth's shadow,  

DLR